Location: Newark
(45.4422°N, 16.2769°E)
Time: 23:43:25
(UTC+00:00)

Courier 1B Rocket - Pass Details

Date: 10 December 2019
Orbit: 920 x 1202 km, 28.2° (Epoch: 20 January)

Event Time Altitude Azimuth Distance (km) Brightness Sun altitude
Rises 08:15:37 0° 243° (WSW) 3,663 7.9 13.4°
Reaches altitude 10° 08:19:35 10° 221° (SW) 2,667 7.5 13.8°
Maximum altitude 08:22:54 15° 189° (S) 2,313 7.8 14.2°
Drops below altitude 10° 08:26:11 10° 157° (SSE) 2,614 9.5 14.5°
Sets 08:30:00 0° 135° (SE) 3,543 9.6 14.8°
